[[{"header":{"parameterUnit":"m.s-1","parameterCategory":1,"la1":30.2991,"la2":30.254,"lo1":-89.0895,"lo2":-89.0444,"dx":0.0017,"dy":0.0017,"nx":28,"ny":28,"refTime":"2022-11-16T03:00:00:Z","depth":0,"parameterNumber":2,"parameterNumberName":"U-component_of_WINDS"},"data":[0,0,0,0,0,0,0,0,0,0,0,0,0,0,0,0,0,0,0,0,0,0,0,0,0,0,0,0,0,0,0,0,0,0,0,0,0,0,0,0,0,0,0,0,0,0,0,0,0,0,0,0,0,0,0,0,0,0,0.0418,0.0417,0,0.0392,0.0391,0.0391,0.04,0.0401,0.0402,0.0402,0.0374,0.0372,0.0371,0,0,0,0,0,0,0,0,0,0,0,0,0,0.0474,0.0473,0.0418,0.0417,0.0417,0.0392,0.0391,0.0391,0.04,0.0401,0.0402,0.0402,0.0374,0.0373,0.0371,0,0,0,0,0,0,0,0,0,0,0,0,0,0.0449,0.0473,0.0418,0.0419,0.0418,0.0392,0.0391,0.0391,0.04,0.0401,0.0402,0.0403,0.0375,0.0373,0.0371,0.0341,0,0,0.0365,0.0364,0,0,0,0,0,0,0,0,0.045,0.0447,0.0419,0.0419,0.0418,0.04,0.0401,0.0374,0.04,0.0407,0.0402,0.0403,0.0382,0.0379,0.0372,0.034,0.0339,0.0365,0.0364,0.0363,0.0362,0,0,0,0,0,0,0,0.0452,0.0448,0.0407,0.0418,0.0418,0.042,0.0417,0.0396,0.039,0.0406,0.0407,0.0404,0.0382,0.0374,0.0372,0.0338,0.0365,0.0363,0.0362,0.0361,0.0281,0.028,0,0,0,0,0,0,0.0454,0.0449,0.0408,0.0407,0.0437,0.0418,0.0415,0.0405,0.039,0.0389,0.0403,0.0405,0.0377,0.0374,0.0371,0.0336,0.0363,0.0361,0.036,0.0282,0.0281,0.028,0,0,0,0,0,0,0.0455,0.045,0.0409,0.0428,0.0423,0.0416,0.0405,0.0404,0.0397,0.0388,0.0386,0.0397,0.0378,0.0374,0.0349,0.0335,0.036,0.0358,0.0283,0.0282,0.028,0.0265,0,0,0,0,0,0,0.0457,0.0451,0.044,0.0428,0.0422,0.0388,0.0404,0.0403,0.0394,0.0395,0.0381,0.038,0.0378,0.0352,0.0347,0.0333,0.0357,0.0284,0.0283,0.0281,0.0266,0.0263,0.026,0,0,0,0,0,0.0459,0.0436,0.0439,0.0434,0.0408,0.0387,0.0384,0.0383,0.0392,0.0381,0.0375,0.038,0.0337,0.0349,0.0344,0.0329,0.0285,0.0283,0.0281,0.0268,0.0264,0.026,0,0,0,0,0,0,0.0445,0.0434,0.0438,0.041,0.0399,0.0389,0.0374,0.0378,0.0364,0.0366,0.0365,0.0362,0.0336,0.033,0.0343,0.03,0.0313,0.0309,0.0305,0.03,0.0297,0.0299,0.0355,0,0,0,0,0,0.0439,0.0423,0.0414,0.0391,0.0385,0.0381,0.0371,0.0372,0.0361,0.0356,0.0348,0.0337,0.0321,0.031,0.0295,0.0266,0.0263,0.0253,0.025,0.0247,0.0244,0.0229,0.0224,0.0273,0.0273,0.0273,0,0,0.0425,0.0417,0.0407,0.0388,0.0379,0.0363,0.0377,0.0358,0.0346,0.0353,0.0329,0.0324,0.0311,0.0284,0.0272,0.0278,0.023,0.0244,0.0242,0.0241,0.0226,0.0221,0.0217,0.0271,0.0272,0.0272,0,0,0.0393,0.0385,0.0365,0.0357,0.0345,0.0342,0.0338,0.0326,0.0323,0.03,0.0305,0.029,0.0262,0.0253,0.0245,0.0211,0.0215,0.0206,0.0188,0.0173,0.0169,0.0166,0.0154,0.0149,0.0203,0.0203,0.0203,0,0.0377,0.0353,0.0354,0.0336,0.0327,0.0333,0.0313,0.0305,0.0288,0.0282,0.0289,0.0256,0.0247,0.0219,0.0211,0.0204,0.0198,0.0207,0.017,0.0167,0.0163,0.0152,0.0147,0.0202,0.0202,0.0202,0.0202,0,0.0335,0.0318,0.0303,0.0288,0.0278,0.0258,0.0256,0.0245,0.0247,0.0244,0.022,0.0211,0.0194,0.0188,0.0188,0.0159,0.0164,0.0171,0.0184,0.0158,0.0147,0.0142,0.02,0.0201,0.0201,0.0201,0,0,0.0291,0.0278,0.0273,0.0266,0.0254,0.0241,0.0222,0.0207,0.0198,0.0186,0.017,0.0148,0.0155,0.0145,0.0145,0.0132,0.0106,0.0141,0.0141,0.0135,0.0074,0.0068,0.0063,0.0109,0.0108,0.0108,0.0075,0,0.0258,0.0225,0.0226,0.0196,0.0181,0.0187,0.0171,0.0162,0.0158,0.0145,0.0141,0.0125,0.0135,0.013,0.0117,0.0112,0.0094,0.0114,0.0094,0.0093,0.0097,0.0057,0.0051,0.0021,0.007,0.007,0.0069,0,0.0214,0.0202,0.0171,0.0162,0.0155,0.0141,0.0127,0.0114,0.0104,0.0103,0.0093,0.0095,0.0076,0.0091,0.0065,0.0079,0.0071,0.0067,0.0066,0.0064,0.0079,0.0054,0.0011,0.0006,0.0062,0.0063,0.0064,0,0.0185,0.0162,0.014,0.0134,0.0123,0.0113,0.0108,0.0099,0.009,0.0078,0.0072,0.0058,0.005,0.0039,0.0038,0.0048,0.0011,0.0025,0.0009,0.0009,0.0001,0.0001,-0.0044,-0.0004,-0.0004,-0.0004,-0.0004,0,0.0147,0.0128,0.0127,0.0114,0.0092,0.0093,0.0072,0.0068,0.006,0.0046,0.0051,0.0037,0.0037,0.0023,0.0022,0.0,-0.0003,-0.0005,-0.0005,-0.0006,-0.0005,-0.0011,-0.0009,-0.0005,-0.0005,-0.0004,-0.0004,0,0.0111,0.011,0.0087,0.0079,0.0077,0.0061,0.0054,0.0042,0.0039,0.0021,0.0017,0.0013,-0.0002,-0.0004,-0.0023,-0.0024,-0.0049,-0.0047,-0.0046,-0.0046,-0.0061,-0.006,-0.0113,-0.0119,-0.0074,-0.0075,-0.0075,0,0.0087,0.0073,0.0063,0.0055,0.0049,0.0035,0.0026,0.0027,0.0018,0.0006,-0.0005,-0.002,-0.0032,-0.0058,-0.0063,-0.0077,-0.0075,-0.0092,-0.0077,-0.0077,-0.0075,-0.0074,-0.0076,-0.0096,-0.0096,-0.0096,-0.0097,0,0.0044,0.0045,0.0032,0.002,0.0009,-0.0001,-0.001,-0.0018,-0.0018,-0.0029,-0.0044,-0.0053,-0.0072,-0.0087,-0.01,-0.0106,-0.0101,-0.0101,-0.0106,-0.0107,-0.0105,-0.0106,-0.0054,-0.01,-0.01,-0.01,-0.01,-0.0099,0.0013,0.0001,-0.0007,-0.0021,-0.0028,-0.0036,-0.0048,-0.0052,-0.0064,-0.0079,-0.0077,-0.0095,-0.0103,-0.0121,-0.0127,-0.0141,-0.0135,-0.0142,-0.0143,-0.0145,-0.0146,-0.0103,-0.0143,-0.0143,-0.0143,-0.0143,-0.0143,0,-0.0029,-0.0034,-0.0046,-0.0059,-0.007,-0.0064,-0.0073,-0.0083,-0.0098,-0.0106,-0.0118,-0.0135,-0.015,-0.0155,-0.0169,-0.0178,-0.0177,-0.0182,-0.0181,-0.0183,-0.0151,-0.0146,-0.0183,-0.0183,-0.0183,-0.0183,-0.0183,-0.0183,-0.0053,-0.0073,-0.0074,-0.0097,-0.0102,-0.0118,-0.0124,-0.0132,-0.0138,-0.0158,-0.0169,-0.0172,-0.0179,-0.0193,-0.0206,-0.0207,-0.0212,-0.0218,-0.0219,-0.0189,-0.0185,-0.0181,-0.0176,-0.022,-0.022,-0.0249,-0.025,-0.025]},{"header":{"parameterUnit":"m.s-1","parameterCategory":1,"la1":30.2991,"la2":30.254,"lo1":-89.0895,"lo2":-89.0444,"dx":0.0017,"dy":0.0017,"nx":28,"ny":28,"refTime":"2022-11-16T03:00:00:Z","depth":0,"parameterNumber":3,"parameterNumberName":"V-component_of_WINDS"},"data":[0,0,0,0,0,0,0,0,0,0,0,0,0,0,0,0,0,0,0,0,0,0,0,0,0,0,0,0,0,0,0,0,0,0,0,0,0,0,0,0,0,0,0,0,0,0,0,0,0,0,0,0,0,0,0,0,0,0,-7.2859,-7.286,0,-7.2977,-7.2978,-7.298,-7.2912,-7.2908,-7.2905,-7.2902,-7.3018,-7.3024,-7.303,0,0,0,0,0,0,0,0,0,0,0,0,0,-7.257,-7.2575,-7.2859,-7.286,-7.2862,-7.2977,-7.2978,-7.298,-7.2912,-7.2908,-7.2904,-7.29,-7.3016,-7.3023,-7.303,0,0,0,0,0,0,0,0,0,0,0,0,0,-7.2692,-7.2577,-7.2858,-7.2842,-7.2842,-7.2976,-7.2978,-7.298,-7.2913,-7.2908,-7.2903,-7.2898,-7.3013,-7.3022,-7.3031,-7.3188,0,0,-7.306,-7.3064,0,0,0,0,0,0,0,0,-7.2685,-7.2703,-7.2843,-7.2843,-7.2843,-7.2925,-7.2919,-7.305,-7.2914,-7.2886,-7.2902,-7.2896,-7.299,-7.3001,-7.3034,-7.3193,-7.3198,-7.306,-7.3066,-7.307,-7.3073,0,0,0,0,0,0,0,-7.2677,-7.2697,-7.2905,-7.2845,-7.2845,-7.2827,-7.2839,-7.2943,-7.2964,-7.2888,-7.2883,-7.2898,-7.2989,-7.3025,-7.3036,-7.32,-7.306,-7.3068,-7.3074,-7.3078,-7.3492,-7.3497,0,0,0,0,0,0,-7.267,-7.2691,-7.2902,-7.2909,-7.2751,-7.2836,-7.2849,-7.2903,-7.2963,-7.2967,-7.2903,-7.2895,-7.3012,-7.3026,-7.304,-7.3227,-7.307,-7.3079,-7.3084,-7.3487,-7.3493,-7.3499,0,0,0,0,0,0,-7.2664,-7.269,-7.2897,-7.2799,-7.2824,-7.2846,-7.2907,-7.2908,-7.2944,-7.2974,-7.2977,-7.2936,-7.3009,-7.3027,-7.3152,-7.323,-7.3083,-7.3091,-7.348,-7.3489,-7.3496,-7.3602,0,0,0,0,0,0,-7.2656,-7.2688,-7.2749,-7.2801,-7.2829,-7.3008,-7.2912,-7.2914,-7.2961,-7.2952,-7.3006,-7.301,-7.3006,-7.3138,-7.3161,-7.324,-7.3098,-7.3473,-7.3484,-7.3494,-7.3591,-7.3612,-7.3631,0,0,0,0,0,-7.2646,-7.2773,-7.2752,-7.2778,-7.2906,-7.3013,-7.3029,-7.3024,-7.2968,-7.3028,-7.3047,-7.3008,-7.3218,-7.3152,-7.3177,-7.3259,-7.3468,-7.3481,-7.3493,-7.3583,-7.3608,-7.363,0,0,0,0,0,0,-7.2728,-7.2779,-7.2757,-7.2904,-7.2955,-7.3001,-7.3078,-7.3051,-7.3117,-7.3106,-7.3094,-7.3107,-7.3237,-7.326,-7.3186,-7.3414,-7.3334,-7.3352,-7.3394,-7.3418,-7.3438,-7.3429,-7.3106,0,0,0,0,0,-7.2763,-7.2847,-7.2887,-7.3013,-7.304,-7.3055,-7.3101,-7.3093,-7.3144,-7.3164,-7.3192,-7.3242,-7.3319,-7.337,-7.3442,-7.3594,-7.3605,-7.3664,-7.3683,-7.3699,-7.3715,-7.3796,-7.3823,-7.354,-7.354,-7.3539,0,0,-7.2836,-7.2875,-7.2929,-7.3031,-7.3069,-7.3155,-7.3073,-7.3167,-7.3231,-7.3178,-7.3298,-7.3321,-7.3375,-7.3514,-7.3577,-7.3538,-7.3795,-7.3715,-7.3727,-7.3734,-7.3811,-7.3838,-7.3862,-7.3548,-7.3546,-7.3545,0,0,-7.3014,-7.3052,-7.3162,-7.3202,-7.3262,-7.3271,-7.3297,-7.3348,-7.3361,-7.3482,-7.3444,-7.3518,-7.3651,-7.3692,-7.373,-7.3923,-7.389,-7.3947,-7.4049,-7.4129,-7.4151,-7.4171,-7.4239,-7.4264,-7.3962,-7.3963,-7.3963,0,-7.3097,-7.3227,-7.3221,-7.3319,-7.3364,-7.3322,-7.3432,-7.3471,-7.355,-7.3582,-7.3538,-7.3704,-7.3737,-7.3885,-7.3933,-7.3965,-7.3994,-7.3941,-7.4149,-7.4169,-7.4187,-7.4252,-7.4278,-7.3969,-7.3968,-7.3968,-7.3967,0,-7.3327,-7.3417,-7.3498,-7.3578,-7.3632,-7.3736,-7.3743,-7.3799,-7.3786,-7.3799,-7.3922,-7.3961,-7.4041,-7.4075,-7.4062,-7.4221,-7.4195,-7.415,-7.407,-7.4221,-7.4282,-7.4306,-7.3979,-7.3976,-7.3974,-7.3973,0,0,-7.3559,-7.3634,-7.3664,-7.37,-7.3763,-7.3832,-7.3932,-7.4012,-7.406,-7.4116,-7.4199,-7.4313,-7.4272,-7.4315,-7.4307,-7.4377,-7.4527,-7.4323,-7.4324,-7.4359,-7.4704,-7.4737,-7.4766,-7.4505,-7.451,-7.4514,-7.4699,0,-7.374,-7.3919,-7.3916,-7.408,-7.4163,-7.4125,-7.4212,-7.4259,-7.4275,-7.4346,-7.4361,-7.4442,-7.4382,-7.4408,-7.4476,-7.4495,-7.4596,-7.4481,-7.4581,-7.4585,-7.4569,-7.4798,-7.4834,-7.5006,-7.4723,-7.4727,-7.473,0,-7.3976,-7.4042,-7.4216,-7.4266,-7.4301,-7.438,-7.4453,-7.4522,-7.4574,-7.458,-7.4629,-7.4609,-7.471,-7.4628,-7.4765,-7.4687,-7.4728,-7.4744,-7.475,-7.4759,-7.4666,-7.4813,-7.5061,-7.5087,-7.4767,-7.4764,-7.4762,0,-7.4127,-7.4259,-7.438,-7.4412,-7.4474,-7.4531,-7.4559,-7.4607,-7.4655,-7.4718,-7.4748,-7.4822,-7.4862,-7.4918,-7.4918,-7.4858,-7.5057,-7.4975,-7.5064,-7.5064,-7.5107,-7.5104,-7.5366,-7.5134,-7.5134,-7.5133,-7.5133,0,-7.433,-7.4438,-7.4449,-7.4524,-7.4643,-7.4638,-7.4755,-7.4777,-7.482,-7.4897,-7.4867,-7.4939,-7.4935,-7.5008,-7.5009,-7.5123,-7.5141,-7.5147,-7.5146,-7.515,-7.5149,-7.5176,-7.5164,-7.514,-7.5139,-7.5137,-7.5136,0,-7.4519,-7.4532,-7.4661,-7.471,-7.4725,-7.481,-7.4851,-7.4921,-7.4934,-7.5031,-7.5054,-7.5073,-7.5157,-7.5163,-7.526,-7.526,-7.5398,-7.5384,-7.5381,-7.5379,-7.5467,-7.5459,-7.5754,-7.5793,-7.5537,-7.5539,-7.5541,0,-7.4648,-7.473,-7.4789,-7.4839,-7.4871,-7.4952,-7.5001,-7.4999,-7.5051,-7.5117,-7.5179,-7.5261,-7.5326,-7.5462,-7.5484,-7.5557,-7.5544,-7.5643,-7.5555,-7.5556,-7.5545,-7.554,-7.5548,-7.566,-7.5663,-7.5665,-7.5667,0,-7.4875,-7.4877,-7.495,-7.5027,-7.5087,-7.5146,-7.5201,-7.5243,-7.5247,-7.5307,-7.5394,-7.5445,-7.5545,-7.5626,-7.5698,-7.5724,-7.5697,-7.5695,-7.5719,-7.5724,-7.5719,-7.5722,-7.5427,-7.5688,-7.5685,-7.5684,-7.5683,-7.5682,-7.5037,-7.5109,-7.5161,-7.5244,-7.5285,-7.5337,-7.5406,-7.5428,-7.5501,-7.5583,-7.5576,-7.5673,-7.5722,-7.5816,-7.5849,-7.5922,-7.5889,-7.5924,-7.5933,-7.5942,-7.5951,-7.5708,-7.5936,-7.5935,-7.5934,-7.5934,-7.5933,0,-7.5262,-7.5295,-7.5371,-7.545,-7.5514,-7.5484,-7.5543,-7.5599,-7.5684,-7.5734,-7.5799,-7.5898,-7.5977,-7.6005,-7.6081,-7.6135,-7.6124,-7.6155,-7.6151,-7.6157,-7.5977,-7.5948,-7.6163,-7.6163,-7.6163,-7.6163,-7.6162,-7.6162,-7.5387,-7.5506,-7.5515,-7.5653,-7.5684,-7.5779,-7.5816,-7.5863,-7.5902,-7.6016,-7.6082,-7.61,-7.614,-7.6219,-7.629,-7.6296,-7.6325,-7.6361,-7.6362,-7.6193,-7.617,-7.6148,-7.6121,-7.6368,-7.6368,-7.6536,-7.6537,-7.6539]}]]